COSMOS 2535 DEB, 44712

Orbit data source: Space-Track

COSMOS 2535 DEB, 44712 is space debris in SSO originally from a launch on Wed, 10 Jul 2019 UTC launched from the Plesetsk Missile And Space Complex (PKMTR). Debris objects in space refer to the collection of defunct objects orbiting the Earth. Examples of debris include non-operational satellites, rocket bodies, and fragments generated from explosions, collisions, or faulty payload assembly.

Loading next visibility...
Identifier
44712, 2019-039P
Orbit
SSO
Country
Flag of CISCIS
Related business
Manufacturer
Unknown
Mission
Spacecraft
Bus & Motor
Unknown
Mass
Unknown
Launch date (UTC)
2019-07-10 (7 years ago)
Launch vehicle
Unknown
Launch site
Plesetsk Missile And Space Complex (PKMTR)
Object type
Payload
Rocket body
Debris
Shape & HBR
Unknown shape, 0.1 m
Radar Cross Section
Small (<0.1 m²)

Expand to show TLE details & history
Last TLE update: 1 week ago

TLE from 1 week ago
0 COSMOS 2535 DEB
1 44712U 19039P   26166.74728402  .00003246  00000-0  33543-3 0  9991
2 44712  97.6771 166.1358 0038414  15.0504 345.1847 14.90275270362271
Epoch: 2026-06-15T17:56Z
TLE epoch observation values (Epoch: 2026-06-15T17:56:05.339Z)
Latitude
-0.00008°
Longitude
-6.91567°
Altitude
574.216 km
Speed
7.588 km/s
True Right ascension
11h 04m 32s
True Declination
0° 00' 00"
Sunlit
Object was in daylight at epoch
Visualization orbit readout
Latitude
Unknown
Longitude
Unknown
Altitude
Unknown
Speed
Unknown
Apparent Right ascension
Unknown
Apparent Declination
Unknown
Sunlit
N/A
Visualization observer readout
Local Sidereal Time
02:14:09
Azimuth
Unknown
Elevation
Unknown
Doppler factor
Unknown
Orbital elements
Apogee altitude
620.877 km
Perigee altitude
567.311 km
Semi-major axis
6,972.231 km
Eccentricity
0.00384
Inclination
97.6771°
RAAN
166.1358°
Arg. of periapsis
15.0504°
True anomaly
345.07162°
Mean anomaly
345.1847°
Eccentric anomaly
345.12821°
Mean motion
3.72808 °/min
Orbital period
96.56 mins
BSTAR
0.00033543
Loading maneuver chart data...
Computing Atmospheric mass density...

Documentation

Showing up to 5 results
|